Regional Weather Roundup
Issued by NWS

Home | Current Version | Previous Version | Graphics & Text | Print | Product List | Glossary On
Versions: 1 2 3 4 5 6 7 8 9 10 11 12 13 14 15 16 17 18 19 20 21 22 23 24 25 26 27 28 29 30 31 32 33 34 35 36 37 38 39 40 41 42 43 44 45 46 47 48 49 50
694
ASUS43 KMKX 221514
RWRWI

WISCONSIN REGIONAL WEATHER ROUNDUP
NATIONAL WEATHER SERVICE MILWAUKEE/SULLIVAN WI
1000 AM CDT FRI MAY 22 2015

NOTE: "FAIR" INDICATES FEW OR NO CLOUDS BELOW 12,000 FEET WITH NO
SIGNIFICANT WEATHER AND/OR OBSTRUCTIONS TO VISIBILITY.

WIZ001-002-006>008-014>016-023>028-221600-
NORTHWEST WISCONSIN

CITY           SKY/WX    TMP DP  RH WIND       PRES   REMARKS
SUPERIOR ARPT  SUNNY     52  35  52 NE5       30.24S
ASHLAND        SUNNY     60  33  36 CALM      30.23S
HAYWARD        SUNNY     60  27  28 VRB3      30.23R
SIREN          SUNNY     62  29  28 CALM      30.22S
CUMBERLAND     SUNNY     59  30  33 S3        30.22F
RICE LAKE      SUNNY     60  31  33 CALM      30.23S
CHETEK         SUNNY     59  33  37 CALM      30.22S
LADYSMITH      SUNNY     59  38  45 CALM      30.24S
EAU CLAIRE     SUNNY     62  35  36 VRB6      30.20F
MENOMONIE      SUNNY     62  31  31 E5        30.21S
NEW RICHMOND   SUNNY     62  34  35 E3        30.22S
OSCEOLA        SUNNY     63  33  33 CALM      30.24S
$$

WIZ003>005-009-010-017-018-221600-
NORTH CENTRAL WISCONSIN

CITY           SKY/WX    TMP DP  RH WIND       PRES   REMARKS
MANITOWISH WTR SUNNY     56  29  34 NW8       30.21S
ARBOR VITAE    SUNNY     57  25  29 N9        30.21S
WOODRUFF       SUNNY     57  25  29 N9        30.21S
RHINELANDER    SUNNY     58  29  33 VRB6      30.22R
EAGLE RIVER    SUNNY     56  23  28 N3        30.21S
LAND O LAKES   SUNNY     56  19  23 N3        30.22R
PHILLIPS       SUNNY     58  33  38 N6        30.21S
TOMAHAWK       SUNNY     58  29  33 NW5       30.23R
MEDFORD        SUNNY     56  34  43 W3        30.22S
MERRILL        SUNNY     56  35  45 SW3       30.23S
$$

WIZ029-030-035-036-043>047-221600-
CENTRAL WISCONSIN

CITY           SKY/WX    TMP DP  RH WIND       PRES   REMARKS
WAUSAU         SUNNY     57  33  40 S3        30.21S
MOSINEE        SUNNY     55  32  41 SW6       30.23S
MARSHFIELD     SUNNY     57  34  41 VRB5      30.22S
STEVENS POINT  SUNNY     56  30  37 SW5       30.23S
WAUPACA        SUNNY     59  26  28 CALM      30.24S
WAUTOMA        SUNNY     58  28  32 E5        30.24S
WISC RAPIDS    SUNNY     60  29  30 S3        30.23F
CAMP DOUGLAS   SUNNY     59  37  44 S3        30.20F
$$

WIZ011>013-019>022-031-037>040-048>050-221600-
NORTHEAST WISCONSIN

CITY           SKY/WX    TMP DP  RH WIND       PRES   REMARKS
ANTIGO         SUNNY     55  33  43 W9        30.22S
SHAWANO        SUNNY     57  29  34 CALM      30.24S
OCONTO         SUNNY     54  21  27 CALM      30.23S
STURGEON BAY   SUNNY     50  27  40 NW5       30.27R
GREEN BAY      SUNNY     57  25  29 CALM      30.24R
MANITOWOC      SUNNY     56  26  31 SE3       30.24R
APPLETON       SUNNY     57  27  30 CALM      30.24R
CLINTONVILLE   SUNNY     55  30  38 S5        30.23F
OSHKOSH        SUNNY     56  30  37 NE6       30.23R
$$

WIZ032>034-041-042-053>061-221600-
SOUTHWEST WISCONSIN

CITY           SKY/WX    TMP DP  RH WIND       PRES   REMARKS
LA CROSSE      SUNNY     61  45  55 VRB5      30.20R
SPARTA         SUNNY     62  34  35 SE3       30.20S
VIROQUA        SUNNY     60  37  41 SE7       30.20S
BOSCOBEL       SUNNY     63  39  41 E3        30.21R
PRAIRIE DU CHI SUNNY     61  44  53 CALM      30.20R
PLATTEVILLE    SUNNY     61  40  46 SE6       30.21R
$$

WIZ056-057-062-063-064-067-068-221600-
SOUTH CENTRAL WISCONSIN

CITY           SKY/WX    TMP DP  RH WIND       PRES   REMARKS
REEDSBURG      SUNNY     58  34  40 S5        30.21S
BARABOO/DELLS  SUNNY     59  31  34 SE5       30.22S
LONE ROCK      SUNNY     59  37  44 SE5       30.22R
MINERAL POINT  SUNNY     61  32  33 SE3       30.21S
MADISON        SUNNY     58  32  37 CALM      30.21S
MIDDLETON      SUNNY     61  25  25 SE3       30.22S
WATERTOWN      SUNNY     58  33  38 CALM      30.22S
MONROE         SUNNY     59  36  41 E5        30.21R
JANESVILLE     SUNNY     63  30  29 SE8       30.20R
$$

WIZ051-052-058>065-066-070>072-221600-
SOUTHEAST WISCONSIN

CITY           SKY/WX    TMP DP  RH WIND       PRES   REMARKS
MILWAUKEE      SUNNY     53  30  41 NE9       30.24R
WAUKESHA       SUNNY     55  28  35 E6        30.23S
MILWAUKEE/TIMM SUNNY     55  21  26 NE5       30.24R
RACINE         SUNNY     54  34  46 NE8       30.25R
BURLINGTON     SUNNY     57  33  39 E7        30.22S
KENOSHA        SUNNY     58  30  34 E10       30.23R
FOND DU LAC    SUNNY     57  27  31 CALM      30.23S
SHEBOYGAN      SUNNY     56  31  38 CALM      30.24R
WEST BEND      SUNNY     57  28  33 SE6       30.23S
JUNEAU         SUNNY     56  29  35 CALM      30.24S
$$

LSZ147-162-221600-
LAKE SUPERIOR

STATION/POSITION TIME  TEMP    WIND        PRES    WAVE
                       AIR SEA DIR/SP/G            HT/PER
                 (UTC) (F)     (DEG/KT/KT) (MB)    (FT/S)
W MID LAKE BUOY  1450   37 36   60/  6/  8   N/A     0
DEVILS ISLAND    1500   41      80/  3/  3   N/A
PORT WING        1440   43     360/  4/  5   N/A
SAXON HARBOR     1400   47        CALM       N/A
$$

LMZ867-665-643>646-221600-
LAKE MICHIGAN

STATION/POSITION TIME  TEMP    WIND        PRES    WAVE
                       AIR SEA DIR/SP/G            HT/PER
                 (UTC) (F)     (DEG/KT/KT) (MB)    (FT/S)
CHAMBERS ISLAND  1400   45      10/  6/  7   N/A
N MID LAKE BUOY  1450   38 36   50/  8/ 10   N/A     1
NORTHPORT PIER   1400   45      80/  6/  8   N/A
SISTER BAY       1417   50     360/ 10/ 10   N/A
KEWAUNEE LAKESHO 1400   48      90/  3/  6   N/A
SHEBOYGAN LAKESH 1500           60/  4/  4   N/A
PORT WASHINGTON  1440   50      40/  5/  7   N/A
ATWATER BUOY     1400   45 44   20/ 10/ 12   N/A
MILWAUKEE LAKESH 1400   45      30/ 12/ 13   N/A
S MID LAKE BUOY  1450   41 38  330/  6/  8   N/A     1
KENOSHA   LAKESH 1500   47      30/ 11/ 13   N/A
$$

TC  - TEMPERATURE IN CELSIUS
VSB - VISIBILITY IN STATUTE MILES
WCI - WIND CHILL INDEX
HX  - HEAT INDEX




USA.gov is the U.S. government's official web portal to all federal, state and local government web resources and services.